Сулюкта

Киргизия     39°56′17″N   69°34′12″E
темп.,
°C
ветер,
м/с
пор.,
м/с
влажн.,
%
обл.,
%
осадки,
мм/ч
давл.,
гПа
погр.,
м
23 апреля, пт
пт2300:00+10з11550 0.0 102510
03:00+9вюв22480 0.0 102313
06:00+8в11490 0.0 102310
09:00+13всв34340 0.0 1023332
12:00+17св44285 0.0 1022975
15:00+20ссв432276 0.0 10211186
18:00+19ссв33225 0.0 1020925
21:00+14в11341 0.0 102010
24 апреля, сб
сб2400:00+12ююв11335 0.0 102011
03:00+12вюв22325 0.0 101811
06:00+11в2233100 0.0 101811
09:00+16всв342669 0.0 1018242
12:00+20ссв312327 0.0 1018806
15:00+22ссз3320100 0.0 10181139
18:00+20сз2322100 0.0 1019991
21:00+17ююв0138100 0.0 102011
25 апреля, вс
вс2500:00+15ююв223597 0.0 102011
03:00+14ююв113951 0.0 101911
06:00+13вюв223682 0.0 101911
09:00+18всв23285 0.0 1020253
12:00+22ссв4424100 0.0 1019898
15:00+24ссв4321100 0.0 10181181
18:00+23ссз3319100 0.0 10181110
21:00+18зсз2232100 0.0 101911
26 апреля, пн
пн2600:00+17ю332853 0.0 101916
03:00+16ю223098 0.0 101811
06:00+15ююв2231100 0.0 101711
09:00+19всв222899 0.0 1018233
12:00+23св4423100 0.0 10171045
15:00+25св552174 0.0 10151442
18:00+25ссв442080 0.0 10151183
21:00+19ссз0135100 0.0 101511
27 апреля, вт
вт2700:00+18ю11350 0.0 101411
03:00+17вюв22365 0.0 101311
06:00+16вюв113769 0.0 101211
09:00+22всв122638 0.0 1013186
12:00+26св44210 0.0 10121053
15:00+29св54180 0.0 10111442
18:00+28ссв43185 0.0 10101331
21:00+21ююз5537100 0.4 101345